User: anonymous   Login
Location: Caltech
(34.1382°N, 118.1253°W)
Time: 04:41:02
(UTC-08:00)
Language:

ASTRO E2 - Orbit

View from above orbital plane
View from above orbital plane
View from above satellite
View from above satellite

Ground track
Ground track

The orbit data is extracted from the following two-line orbital elements,

1 28773U 05025A   15062.01121518  .00008769  00000-0  49706-3 0  9991
2 28773 031.3845 312.9719 0005430 247.8553 112.1516 15.11725575530342
Epoch (UTC): 03 March 2015 00:16:08
Eccentricity: 0.0005430
inclination: 31.3845°
perigee height: 527 km
apogee height: 534 km
right ascension of ascending node: 312.9719°
argument of perigee: 247.8553°
revolutions per day: 15.11725575
mean anomaly at epoch: 112.1516°
orbit number at epoch: 53034

The dashed part of the orbit path shows where the satellite is in the earth's shadow,  

DLR